Webcam

Mit webcam er opstillet i Qinngorput og har retning mod den sydlige del af Nuuk. Billedet opdateres automatisk.

BGGH 241850Z 33002KT 9999 BKN026 02/M03 Q0994